| time (UTC) | temp F | wind direction | speed MPH | gust MPH | rain 1hr in | rain 24hr in | rain mn in | humidity % | barometer mb |
| 20260906132819 | 76 | 200 | 0.0 | 2.0 | 0.00 | 0.00 | 0.00 | 90 | 1016.3 |
| 20260906131832 | 74 | 214 | 0.0 | 0.0 | 0.00 | 0.00 | 0.00 | 92 | 1016.3 |
| 20260906130855 | 73 | 214 | 0.0 | 1.0 | 0.00 | 0.00 | 0.00 | 95 | 1016.3 |
| 20260906125837 | 71 | 232 | 0.0 | 1.0 | 0.00 | 0.00 | 0.00 | 98 | 1015.6 |
| 20260906124832 | 69 | 236 | 0.0 | 1.0 | 0.00 | 0.00 | 0.00 | 99 | 1015.6 |
| 20260906123825 | 68 | 236 | 0.0 | 0.0 | 0.00 | 0.00 | 0.00 | 99 | 1015.5 |
| 20260906122838 | 67 | 236 | 0.0 | 0.0 | 0.00 | 0.00 | 0.00 | 99 | 1015.4 |
| 20260906121854 | 67 | 236 | 0.0 | 0.0 | 0.00 | 0.00 | 0.00 | 98 | 1015.4 |
| 20260906120836 | 66 | 236 | 0.0 | 0.0 | 0.00 | 0.00 | 0.00 | 98 | 1015.2 |
| 20260906115836 | 66 | 236 | 0.0 | 0.0 | 0.00 | 0.00 | 0.00 | 98 | 1014.9 |
| 20260906114828 | 66 | 236 | 0.0 | 0.0 | 0.00 | 0.00 | 0.00 | 98 | 1014.9 |
| 20260906113826 | 66 | 236 | 0.0 | 0.0 | 0.00 | 0.00 | 0.00 | 98 | 1014.7 |
| 20260906112819 | 66 | 236 | 0.0 | 2.0 | 0.00 | 0.00 | 0.00 | 98 | 1014.7 |
| 20260906111832 | 66 | 236 | 0.0 | 0.0 | 0.00 | 0.00 | 0.00 | 98 | 1014.7 |
| 20260906110839 | 66 | 236 | 0.0 | 0.0 | 0.00 | 0.00 | 0.00 | 98 | 1015.4 |
| 20260906105818 | 66 | 236 | 0.0 | 0.0 | 0.00 | 0.00 | 0.00 | 98 | 1015.3 |
| 20260906104831 | 66 | 236 | 0.0 | 0.0 | 0.00 | 0.00 | 0.00 | 98 | 1015.3 |
| 20260906103824 | 66 | 236 | 0.0 | 0.0 | 0.00 | 0.00 | 0.00 | 98 | 1015.2 |
| 20260906102822 | 66 | 236 | 0.0 | 0.0 | 0.00 | 0.00 | 0.00 | 98 | 1015.1 |
| 20260906101855 | 67 | 236 | 0.0 | 0.0 | 0.00 | 0.00 | 0.00 | 98 | 1015.1 |
| 20260906100838 | 67 | 236 | 0.0 | 0.0 | 0.00 | 0.00 | 0.00 | 98 | 1014.8 |
| 20260906095856 | 67 | 236 | 0.0 | 0.0 | 0.00 | 0.00 | 0.00 | 98 | 1014.6 |
| 20260906094832 | 67 | 236 | 0.0 | 0.0 | 0.00 | 0.00 | 0.00 | 98 | 1014.6 |
| 20260906093845 | 67 | 236 | 0.0 | 0.0 | 0.00 | 0.00 | 0.00 | 98 | 1014.7 |
| 20260906092837 | 67 | 236 | 0.0 | 0.0 | 0.00 | 0.00 | 0.00 | 98 | 1014.6 |
| 20260906091829 | 68 | 236 | 0.0 | 0.0 | 0.00 | 0.00 | 0.00 | 98 | 1014.6 |
| 20260906090837 | 68 | 236 | 0.0 | 0.0 | 0.00 | 0.00 | 0.00 | 98 | 1014.8 |
| 20260906085836 | 68 | 236 | 0.0 | 1.0 | 0.00 | 0.00 | 0.00 | 98 | 1014.8 |
| 20260906084828 | 68 | 236 | 0.0 | 0.0 | 0.00 | 0.00 | 0.00 | 98 | 1014.8 |
| 20260906083825 | 68 | 236 | 0.0 | 0.0 | 0.00 | 0.00 | 0.00 | 97 | 1014.6 |
| 20260906082858 | 68 | 236 | 0.0 | 0.0 | 0.00 | 0.00 | 0.00 | 97 | 1014.6 |
| 20260906081830 | 68 | 236 | 0.0 | 0.0 | 0.00 | 0.00 | 0.00 | 98 | 1014.6 |
| 20260906080913 | 68 | 236 | 0.0 | 1.0 | 0.00 | 0.00 | 0.00 | 98 | 1014.7 |
| 20260906075834 | 68 | 236 | 0.0 | 1.0 | 0.00 | 0.00 | 0.00 | 97 | 1014.7 |
| 20260906074827 | 68 | 236 | 0.0 | 0.0 | 0.00 | 0.00 | 0.00 | 97 | 1014.7 |
| 20260906073820 | 68 | 236 | 0.0 | 0.0 | 0.00 | 0.00 | 0.00 | 97 | 1014.6 |
| 20260906072833 | 69 | 236 | 0.0 | 0.0 | 0.00 | 0.00 | 0.00 | 98 | 1014.6 |
| 20260906071830 | 69 | 236 | 0.0 | 0.0 | 0.00 | 0.00 | 0.00 | 97 | 1014.6 |
| 20260906070833 | 69 | 236 | 0.0 | 0.0 | 0.00 | 0.00 | 0.00 | 97 | 1013.9 |
| 20260906065830 | 69 | 236 | 0.0 | 0.0 | 0.00 | 0.00 | 0.00 | 97 | 1014.0 |
| 20260906064823 | 69 | 236 | 0.0 | 1.0 | 0.00 | 0.00 | 0.00 | 97 | 1014.0 |
| 20260906063818 | 69 | 236 | 0.0 | 1.0 | 0.00 | 0.00 | 0.00 | 97 | 1015.1 |
| 20260906062828 | 69 | 236 | 0.0 | 0.0 | 0.00 | 0.00 | 0.00 | 97 | 1015.2 |
| 20260906061819 | 70 | 236 | 0.0 | 1.0 | 0.00 | 0.00 | 0.00 | 97 | 1015.2 |
| 20260906060844 | 70 | 236 | 0.0 | 0.0 | 0.00 | 0.00 | 0.00 | 97 | 1015.5 |
| 20260906055840 | 70 | 236 | 0.0 | 0.0 | 0.00 | 0.00 | 0.00 | 97 | 1015.4 |
| 20260906054829 | 70 | 236 | 0.0 | 0.0 | 0.00 | 0.00 | 0.00 | 97 | 1015.4 |
| 20260906053839 | 70 | 236 | 0.0 | 0.0 | 0.00 | 0.00 | 0.00 | 97 | 1015.7 |
| 20260906052828 | 70 | 236 | 0.0 | 0.0 | 0.00 | 0.00 | 0.00 | 97 | 1015.8 |
| 20260906051822 | 71 | 236 | 0.0 | 0.0 | 0.00 | 0.00 | 0.00 | 97 | 1015.8 |
| 20260906050845 | 71 | 236 | 0.0 | 0.0 | 0.00 | 0.00 | 0.00 | 96 | 1015.3 |
| 20260906045822 | 71 | 236 | 0.0 | 1.0 | 0.00 | 0.00 | 0.00 | 97 | 1015.3 |
| 20260906044836 | 71 | 236 | 0.0 | 1.0 | 0.00 | 0.00 | 0.00 | 96 | 1015.3 |
| 20260906043827 | 71 | 252 | 0.0 | 1.0 | 0.00 | 0.00 | 0.00 | 96 | 1015.3 |
| 20260906042817 | 71 | 252 | 0.0 | 1.0 | 0.00 | 0.00 | 0.00 | 96 | 1015.4 |
| 20260906041848 | 71 | 252 | 0.0 | 0.0 | 0.00 | 0.00 | 0.00 | 96 | 1015.4 |
| 20260906040832 | 71 | 252 | 0.0 | 0.0 | 0.00 | 0.00 | 0.00 | 96 | 1015.9 |
| 20260906035848 | 72 | 252 | 0.0 | 1.0 | 0.00 | 0.00 | 0.00 | 96 | 1016.0 |
| 20260906034854 | 72 | 252 | 0.0 | 1.0 | 0.00 | 0.00 | 0.00 | 96 | 1016.0 |
| 20260906033824 | 72 | 252 | 0.0 | 0.0 | 0.00 | 0.00 | 0.00 | 96 | 1016.5 |
| 20260906032854 | 72 | 252 | 0.0 | 0.0 | 0.00 | 0.00 | 0.00 | 95 | 1016.5 |
| 20260906031829 | 72 | 252 | 0.0 | 1.0 | 0.00 | 0.00 | 0.00 | 95 | 1016.5 |
| 20260906030850 | 72 | 252 | 0.0 | 0.0 | 0.00 | 0.00 | 0.00 | 95 | 1016.5 |
| 20260906025826 | 72 | 252 | 0.0 | 0.0 | 0.00 | 0.00 | 0.00 | 95 | 1016.4 |
| 20260906024821 | 72 | 252 | 0.0 | 0.0 | 0.00 | 0.00 | 0.00 | 95 | 1016.4 |
| 20260906023831 | 72 | 252 | 0.0 | 0.0 | 0.00 | 0.00 | 0.00 | 95 | 1016.3 |
| 20260906022841 | 72 | 252 | 0.0 | 0.0 | 0.00 | 0.00 | 0.00 | 95 | 1016.0 |
| 20260906021830 | 72 | 252 | 0.0 | 0.0 | 0.00 | 0.00 | 0.00 | 95 | 1016.0 |
| 20260906020836 | 72 | 252 | 0.0 | 1.0 | 0.00 | 0.00 | 0.00 | 94 | 1015.2 |
| 20260906015832 | 73 | 252 | 0.0 | 1.0 | 0.00 | 0.00 | 0.00 | 94 | 1014.8 |
| 20260906014823 | 73 | 252 | 0.0 | 1.0 | 0.00 | 0.00 | 0.00 | 93 | 1014.8 |
| 20260906013833 | 73 | 252 | 0.0 | 0.0 | 0.00 | 0.00 | 0.00 | 93 | 1014.9 |
| 20260906012829 | 73 | 252 | 0.0 | 1.0 | 0.00 | 0.00 | 0.00 | 93 | 1014.8 |
| 20260906011819 | 74 | 252 | 0.0 | 0.0 | 0.00 | 0.00 | 0.00 | 92 | 1014.8 |
| 20260906010840 | 74 | 252 | 0.0 | 1.0 | 0.00 | 0.00 | 0.00 | 92 | 1015.1 |
| 20260906005817 | 75 | 252 | 0.0 | 1.0 | 0.00 | 0.00 | 0.00 | 91 | 1015.1 |
| 20260906004832 | 75 | 252 | 0.0 | 0.0 | 0.00 | 0.00 | 0.00 | 91 | 1015.1 |
| 20260906003822 | 75 | 252 | 0.0 | 1.0 | 0.00 | 0.00 | 0.00 | 89 | 1014.8 |
| 20260906002833 | 76 | 252 | 0.0 | 1.0 | 0.00 | 0.00 | 0.00 | 88 | 1014.7 |
| 20260906001845 | 76 | 252 | 0.0 | 0.0 | 0.00 | 0.00 | 0.00 | 88 | 1014.7 |
| 20260906000849 | 77 | 252 | 0.0 | 0.0 | 0.00 | 0.00 | 0.00 | 87 | 1014.8 |
| 20260905235845 | 78 | 252 | 0.0 | 0.0 | 0.00 | 0.00 | 0.00 | 84 | 1014.5 |
| 20260905234834 | 79 | 252 | 0.0 | 0.0 | 0.00 | 0.00 | 0.00 | 83 | 1014.5 |
| 20260905233824 | 80 | 252 | 0.0 | 0.0 | 0.00 | 0.00 | 0.00 | 81 | 1014.4 |
| 20260905232818 | 80 | 252 | 0.0 | 0.0 | 0.00 | 0.00 | 0.00 | 80 | 1014.3 |
| 20260905231829 | 81 | 252 | 0.0 | 0.0 | 0.00 | 0.00 | 0.00 | 78 | 1014.3 |
| 20260905230912 | 81 | 252 | 0.0 | 0.0 | 0.00 | 0.00 | 0.00 | 77 | 1014.2 |
| 20260905225826 | 81 | 252 | 0.0 | 0.0 | 0.00 | 0.00 | 0.00 | 78 | 1014.1 |
| 20260905224841 | 81 | 252 | 0.0 | 0.0 | 0.00 | 0.00 | 0.00 | 76 | 1014.1 |
| 20260905223831 | 82 | 252 | 0.0 | 0.0 | 0.00 | 0.00 | 0.00 | 75 | 1014.1 |
| 20260905222822 | 82 | 252 | 0.0 | 4.0 | 0.00 | 0.00 | 0.00 | 74 | 1014.2 |
| 20260905221832 | 83 | 157 | 0.0 | 1.0 | 0.00 | 0.00 | 0.00 | 73 | 1014.2 |
| 20260905220838 | 83 | 157 | 0.0 | 1.0 | 0.00 | 0.00 | 0.00 | 72 | 1014.3 |
| 20260905215833 | 82 | 157 | 0.0 | 2.0 | 0.00 | 0.00 | 0.00 | 73 | 1014.3 |
| 20260905214825 | 83 | 217 | 2.0 | 3.0 | 0.00 | 0.00 | 0.00 | 72 | 1014.3 |
| 20260905213820 | 84 | 254 | 0.0 | 3.0 | 0.00 | 0.00 | 0.00 | 70 | 1014.8 |
| 20260905212831 | 84 | 286 | 0.0 | 4.0 | 0.00 | 0.00 | 0.00 | 71 | 1014.9 |
| 20260905211825 | 83 | 168 | 0.0 | 2.0 | 0.00 | 0.00 | 0.00 | 71 | 1014.9 |
| 20260905210906 | 83 | 165 | 0.0 | 0.0 | 0.00 | 0.00 | 0.00 | 72 | 1015.0 |
| 20260905205828 | 82 | 165 | 0.0 | 1.0 | 0.00 | 0.00 | 0.00 | 75 | 1015.1 |
| 20260905204822 | 81 | 215 | 0.0 | 3.0 | 0.00 | 0.00 | 0.00 | 76 | 1015.1 |
| 20260905203835 | 81 | 211 | 0.0 | 2.0 | 0.00 | 0.00 | 0.00 | 77 | 1015.1 |
| 20260905202849 | 80 | 228 | 0.0 | 0.0 | 0.00 | 0.00 | 0.00 | 79 | 1015.4 |
| 20260905201846 | 80 | 228 | 3.0 | 5.0 | 0.00 | 0.00 | 0.00 | 79 | 1015.4 |
| 20260905200848 | 80 | 144 | 0.0 | 4.0 | 0.00 | 0.00 | 0.00 | 82 | 1015.6 |
| 20260905195827 | 78 | 257 | 0.0 | 0.0 | 0.00 | 0.00 | 0.00 | 83 | 1016.2 |
| 20260905194819 | 77 | 257 | 0.0 | 2.0 | 0.00 | 0.00 | 0.00 | 84 | 1016.2 |
| 20260905193837 | 77 | 227 | 0.0 | 1.0 | 0.00 | 0.00 | 0.00 | 86 | 1016.4 |
| 20260905192830 | 77 | 228 | 0.0 | 1.0 | 0.00 | 0.00 | 0.00 | 86 | 1016.5 |
| 20260905191845 | 77 | 228 | 0.0 | 0.0 | 0.00 | 0.00 | 0.00 | 86 | 1016.5 |
| 20260905190847 | 76 | 228 | 0.0 | 3.0 | 0.00 | 0.00 | 0.00 | 85 | 1016.4 |
| 20260905185832 | 76 | 230 | 0.0 | 4.0 | 0.00 | 0.00 | 0.00 | 86 | 1016.9 |
| 20260905184825 | 76 | 256 | 2.0 | 4.0 | 0.00 | 0.00 | 0.00 | 85 | 1016.9 |
| 20260905183839 | 77 | 240 | 0.0 | 1.0 | 0.00 | 0.00 | 0.00 | 81 | 1016.9 |
| 20260905182835 | 77 | 240 | 0.0 | 2.0 | 0.00 | 0.00 | 0.00 | 75 | 1016.9 |
| 20260905181829 | 76 | 244 | 1.0 | 3.0 | 0.00 | 0.00 | 0.00 | 77 | 1016.9 |
| 20260905180913 | 75 | 227 | 1.0 | 3.0 | 0.00 | 0.00 | 0.00 | 81 | 1018.1 |
| 20260905175831 | 75 | 45 | 0.0 | 5.0 | 0.00 | 0.00 | 0.00 | 79 | 1016.7 |
| 20260905174829 | 77 | 101 | 0.0 | 4.0 | 0.00 | 0.00 | 0.00 | 78 | 1016.7 |
| 20260905173823 | 77 | 222 | 1.0 | 2.0 | 0.00 | 0.00 | 0.00 | 77 | 1016.9 |
| 20260905172837 | 78 | 5 | 0.0 | 1.0 | 0.00 | 0.00 | 0.00 | 79 | 1017.1 |
| 20260905171851 | 80 | 270 | 2.0 | 6.0 | 0.00 | 0.00 | 0.00 | 76 | 1017.1 |
| 20260905170838 | 83 | 252 | 1.0 | 3.0 | 0.00 | 0.00 | 0.00 | 73 | 1016.7 |
| 20260905165819 | 85 | 313 | 0.0 | 1.0 | 0.00 | 0.00 | 0.00 | 72 | 1017.1 |
| 20260905164832 | 86 | 313 | 0.0 | 3.0 | 0.00 | 0.00 | 0.00 | 69 | 1017.1 |
| 20260905163831 | 87 | 9 | 1.0 | 5.0 | 0.00 | 0.00 | 0.00 | 65 | 1017.0 |
| 20260905162826 | 87 | 27 | 2.0 | 5.0 | 0.00 | 0.00 | 0.00 | 65 | 1017.3 |
| 20260905161820 | 87 | 5 | 2.0 | 5.0 | 0.00 | 0.00 | 0.00 | 67 | 1017.3 |
| 20260905160844 | 87 | 29 | 2.0 | 5.0 | 0.00 | 0.00 | 0.00 | 66 | 1017.4 |
| 20260905155826 | 87 | 360 | 2.0 | 6.0 | 0.00 | 0.00 | 0.00 | 67 | 1017.5 |
| 20260905154819 | 87 | 5 | 3.0 | 5.0 | 0.00 | 0.00 | 0.00 | 66 | 1017.5 |
| 20260905153833 | 88 | 78 | 2.0 | 3.0 | 0.00 | 0.00 | 0.00 | 69 | 1017.3 |
| 20260905152830 | 88 | 25 | 2.0 | 4.0 | 0.00 | 0.00 | 0.00 | 66 | 1017.1 |
| 20260905151824 | 87 | 147 | 1.0 | 2.0 | 0.00 | 0.00 | 0.00 | 67 | 1017.1 |
| 20260905150849 | 87 | 147 | 0.0 | 2.0 | 0.00 | 0.00 | 0.00 | 70 | 1017.0 |
| 20260905145829 | 86 | 146 | 0.0 | 0.0 | 0.00 | 0.00 | 0.00 | 73 | 1017.2 |
| 20260905144827 | 85 | 147 | 0.0 | 0.0 | 0.00 | 0.00 | 0.00 | 75 | 1017.2 |
| 20260905143841 | 85 | 146 | 0.0 | 2.0 | 0.00 | 0.00 | 0.00 | 75 | 1017.3 |
| 20260905142834 | 84 | 146 | 0.0 | 2.0 | 0.00 | 0.00 | 0.00 | 76 | 1017.5 |
| 20260905141849 | 83 | 146 | 0.0 | 2.0 | 0.00 | 0.00 | 0.00 | 79 | 1017.5 |
| 20260905140836 | 83 | 146 | 1.0 | 2.0 | 0.00 | 0.00 | 0.00 | 77 | 1017.7 |
| 20260905135835 | 81 | 147 | 2.0 | 3.0 | 0.00 | 0.00 | 0.00 | 78 | 1016.8 |
| 20260905134829 | 80 | 168 | 0.0 | 2.0 | 0.00 | 0.00 | 0.00 | 81 | 1016.8 |
| 20260905133839 | 79 | 200 | 0.0 | 1.0 | 0.00 | 0.00 | 0.00 | 84 | 1017.3 |